Year,Month,Day,Hour,Minute,Value (Times are PST for temperature in C)
2011,05,01,00,00,5.10
2011,05,01,00,01,5.10
2011,05,01,00,02,5.10
2011,05,01,00,03,5.10
2011,05,01,00,04,5.10
2011,05,01,00,05,5.20
2011,05,01,00,06,5.30
2011,05,01,00,07,5.30
2011,05,01,00,08,5.30
2011,05,01,00,09,5.30
2011,05,01,00,10,5.30
2011,05,01,00,11,5.40
2011,05,01,00,12,5.40
2011,05,01,00,13,5.40
2011,05,01,00,14,5.40
2011,05,01,00,15,5.40
2011,05,01,00,16,5.30
2011,05,01,00,17,5.40
2011,05,01,00,18,5.40
2011,05,01,00,19,5.40
2011,05,01,00,20,5.40
2011,05,01,00,21,5.40
2011,05,01,00,22,5.40
2011,05,01,00,23,5.40
2011,05,01,00,24,5.40
2011,05,01,00,25,5.30
2011,05,01,00,26,5.30
2011,05,01,00,27,5.30
2011,05,01,00,28,5.30
2011,05,01,00,29,5.30
2011,05,01,00,30,5.30
2011,05,01,00,31,5.30
2011,05,01,00,32,5.30
2011,05,01,00,33,5.20
2011,05,01,00,34,5.30
2011,05,01,00,35,5.30
2011,05,01,00,36,5.30
2011,05,01,00,37,5.30
2011,05,01,00,38,5.30
2011,05,01,00,39,5.30
2011,05,01,00,40,5.20
2011,05,01,00,41,5.20
2011,05,01,00,42,5.20
2011,05,01,00,43,5.20
2011,05,01,00,44,5.20
2011,05,01,00,45,5.10
2011,05,01,00,46,5.10
2011,05,01,00,47,5.10
2011,05,01,00,48,5.10
2011,05,01,00,49,5.10
2011,05,01,00,50,5.10
2011,05,01,00,51,5.10
2011,05,01,00,52,5.10
2011,05,01,00,53,5.10
2011,05,01,00,54,5.10
2011,05,01,00,55,5.10
2011,05,01,00,56,5.10
2011,05,01,00,57,5.10
2011,05,01,00,58,5.10
2011,05,01,00,59,5.10
2011,05,01,01,00,5.10
2011,05,01,01,01,5.10
2011,05,01,01,02,5.10
2011,05,01,01,03,5.10
2011,05,01,01,04,5.20
2011,05,01,01,05,5.20
2011,05,01,01,06,5.30
2011,05,01,01,07,5.30
2011,05,01,01,08,5.30
2011,05,01,01,09,5.30
2011,05,01,01,10,5.30
2011,05,01,01,11,5.30
2011,05,01,01,12,5.30
2011,05,01,01,13,5.30
2011,05,01,01,14,5.30
2011,05,01,01,15,5.30
2011,05,01,01,16,5.30
2011,05,01,01,17,5.30
2011,05,01,01,18,5.20
2011,05,01,01,19,5.20
2011,05,01,01,20,5.20
2011,05,01,01,21,5.10
2011,05,01,01,22,5.10
2011,05,01,01,23,5.10
2011,05,01,01,24,5.00
2011,05,01,01,25,5.00
2011,05,01,01,26,4.90
2011,05,01,01,27,4.90
2011,05,01,01,28,4.90
2011,05,01,01,29,4.90
2011,05,01,01,30,4.90
2011,05,01,01,31,4.90
2011,05,01,01,32,4.80
2011,05,01,01,33,4.80
2011,05,01,01,34,4.80
2011,05,01,01,35,4.80
2011,05,01,01,36,4.80
2011,05,01,01,37,4.70
2011,05,01,01,38,4.70
2011,05,01,01,39,4.70
2011,05,01,01,40,4.70
2011,05,01,01,41,4.70
2011,05,01,01,42,4.60
2011,05,01,01,43,4.60
2011,05,01,01,44,4.60
2011,05,01,01,45,4.50
2011,05,01,01,46,4.50
2011,05,01,01,47,4.50
2011,05,01,01,48,4.40
2011,05,01,01,49,4.40
2011,05,01,01,50,4.40
2011,05,01,01,51,4.40
2011,05,01,01,52,4.40
2011,05,01,01,53,4.40
2011,05,01,01,54,4.40
2011,05,01,01,55,4.40
2011,05,01,01,56,4.40
2011,05,01,01,57,4.40
2011,05,01,01,58,4.40
2011,05,01,01,59,4.30
2011,05,01,02,00,4.30
2011,05,01,02,01,4.30
2011,05,01,02,02,4.30
2011,05,01,02,03,4.30
2011,05,01,02,04,4.30
2011,05,01,02,05,4.30
2011,05,01,02,06,4.30
2011,05,01,02,07,4.30
2011,05,01,02,08,4.30
2011,05,01,02,09,4.30
2011,05,01,02,10,4.30
2011,05,01,02,11,4.30
2011,05,01,02,12,4.30
2011,05,01,02,13,4.30
2011,05,01,02,14,4.30
2011,05,01,02,15,4.30
2011,05,01,02,16,4.30
2011,05,01,02,17,4.30
2011,05,01,02,18,4.30
2011,05,01,02,19,4.20
2011,05,01,02,20,4.20
2011,05,01,02,21,4.20
2011,05,01,02,22,4.20
2011,05,01,02,23,4.20
2011,05,01,02,24,4.10
2011,05,01,02,25,4.10
2011,05,01,02,26,4.10
2011,05,01,02,27,4.10
2011,05,01,02,28,4.10
2011,05,01,02,29,4.10
2011,05,01,02,30,4.20
2011,05,01,02,31,4.20
2011,05,01,02,32,4.20
2011,05,01,02,33,4.30
2011,05,01,02,34,4.30
2011,05,01,02,35,4.30
2011,05,01,02,36,4.30
2011,05,01,02,37,4.30
2011,05,01,02,38,4.30
2011,05,01,02,39,4.30
2011,05,01,02,40,4.30
2011,05,01,02,41,4.30
2011,05,01,02,42,4.30
2011,05,01,02,43,4.30
2011,05,01,02,44,4.30
2011,05,01,02,45,4.30
2011,05,01,02,46,4.30
2011,05,01,02,47,4.30
2011,05,01,02,48,4.20
2011,05,01,02,49,4.20
2011,05,01,02,50,4.20
2011,05,01,02,51,4.10
2011,05,01,02,52,4.10
2011,05,01,02,53,4.10
2011,05,01,02,54,4.10
2011,05,01,02,55,4.10
2011,05,01,02,56,4.10
2011,05,01,02,57,4.10
2011,05,01,02,58,4.10
2011,05,01,02,59,4.10
2011,05,01,03,00,4.10
2011,05,01,03,01,4.10
2011,05,01,03,02,4.10
2011,05,01,03,03,4.10
2011,05,01,03,04,4.10
2011,05,01,03,05,4.10
2011,05,01,03,06,4.10
2011,05,01,03,07,4.10
2011,05,01,03,08,4.10
2011,05,01,03,09,4.00
2011,05,01,03,10,4.00
2011,05,01,03,11,4.00
2011,05,01,03,12,4.00
2011,05,01,03,13,3.90
2011,05,01,03,14,3.90
2011,05,01,03,15,3.90
2011,05,01,03,16,3.90
2011,05,01,03,17,3.80
2011,05,01,03,18,3.80
2011,05,01,03,19,3.80
2011,05,01,03,20,3.80
2011,05,01,03,21,3.80
2011,05,01,03,22,3.70
2011,05,01,03,23,3.70
2011,05,01,03,24,3.70
2011,05,01,03,25,3.70
2011,05,01,03,26,3.70
2011,05,01,03,27,3.60
2011,05,01,03,28,3.60
2011,05,01,03,29,3.60
2011,05,01,03,30,3.60
2011,05,01,03,31,3.60
2011,05,01,03,32,3.60
2011,05,01,03,33,3.60
2011,05,01,03,34,3.60
2011,05,01,03,35,3.60
2011,05,01,03,36,3.70
2011,05,01,03,37,3.70
2011,05,01,03,38,3.70
2011,05,01,03,39,3.80
2011,05,01,03,40,3.80
2011,05,01,03,41,3.80
2011,05,01,03,42,3.80
2011,05,01,03,43,3.80
2011,05,01,03,44,3.80
2011,05,01,03,45,3.90
2011,05,01,03,46,3.90
2011,05,01,03,47,3.90
2011,05,01,03,48,3.80
2011,05,01,03,49,3.80
2011,05,01,03,50,3.80
2011,05,01,03,51,3.90
2011,05,01,03,52,3.90
2011,05,01,03,53,3.90
2011,05,01,03,54,3.90
2011,05,01,03,55,3.90
2011,05,01,03,56,3.90
2011,05,01,03,57,3.90
2011,05,01,03,58,3.90
2011,05,01,03,59,3.90
2011,05,01,04,00,3.90
2011,05,01,04,01,3.90
2011,05,01,04,02,3.90
2011,05,01,04,03,3.90
2011,05,01,04,04,3.80
2011,05,01,04,05,3.80
2011,05,01,04,06,3.80
2011,05,01,04,07,3.80
2011,05,01,04,08,3.80
2011,05,01,04,09,3.80
2011,05,01,04,10,3.80
2011,05,01,04,11,3.70
2011,05,01,04,12,3.70
2011,05,01,04,13,3.70
2011,05,01,04,14,3.70
2011,05,01,04,15,3.60
2011,05,01,04,16,3.60
2011,05,01,04,17,3.60
2011,05,01,04,18,3.50
2011,05,01,04,19,3.50
2011,05,01,04,20,3.50
2011,05,01,04,21,3.50
2011,05,01,04,22,3.50
2011,05,01,04,23,3.40
2011,05,01,04,24,3.40
2011,05,01,04,25,3.40
2011,05,01,04,26,3.40
2011,05,01,04,27,3.40
2011,05,01,04,28,3.40
2011,05,01,04,29,3.40
2011,05,01,04,30,3.40
2011,05,01,04,31,3.30
2011,05,01,04,32,3.30
2011,05,01,04,33,3.30
2011,05,01,04,34,3.30
2011,05,01,04,35,3.30
2011,05,01,04,36,3.30
2011,05,01,04,37,3.30
2011,05,01,04,38,3.30
2011,05,01,04,39,3.40
2011,05,01,04,40,3.40
2011,05,01,04,41,3.40
2011,05,01,04,42,3.40
2011,05,01,04,43,3.40
2011,05,01,04,44,3.40
2011,05,01,04,45,3.40
2011,05,01,04,46,3.50
2011,05,01,04,47,3.50
2011,05,01,04,48,3.50
2011,05,01,04,49,3.60
2011,05,01,04,50,3.60
2011,05,01,04,51,3.70
2011,05,01,04,52,3.70
2011,05,01,04,53,3.70
2011,05,01,04,54,3.70
2011,05,01,04,55,3.70
2011,05,01,04,56,3.70
2011,05,01,04,57,3.70
2011,05,01,04,58,3.70
2011,05,01,04,59,3.70
2011,05,01,05,00,3.70
2011,05,01,05,01,3.70
2011,05,01,05,02,3.70
2011,05,01,05,03,3.70
2011,05,01,05,04,3.70
2011,05,01,05,05,3.70
2011,05,01,05,06,3.70
2011,05,01,05,07,3.70
2011,05,01,05,08,3.70
2011,05,01,05,09,3.70
2011,05,01,05,10,3.70
2011,05,01,05,11,3.70
2011,05,01,05,12,3.70
2011,05,01,05,13,3.70
2011,05,01,05,14,3.70
2011,05,01,05,15,3.70
2011,05,01,05,16,3.70
2011,05,01,05,17,3.70
2011,05,01,05,18,3.70
2011,05,01,05,19,3.70
2011,05,01,05,20,3.70
2011,05,01,05,21,3.70
2011,05,01,05,22,3.70
2011,05,01,05,23,3.70
2011,05,01,05,24,3.70
2011,05,01,05,25,3.70
2011,05,01,05,26,3.70
2011,05,01,05,27,3.80
2011,05,01,05,28,3.80
2011,05,01,05,29,3.80
2011,05,01,05,30,3.80
2011,05,01,05,31,3.80
2011,05,01,05,32,3.80
2011,05,01,05,33,3.80
2011,05,01,05,34,3.70
2011,05,01,05,35,3.70
2011,05,01,05,36,3.70
2011,05,01,05,37,3.70
2011,05,01,05,38,3.60
2011,05,01,05,39,3.60
2011,05,01,05,40,3.60
2011,05,01,05,41,3.60
2011,05,01,05,42,3.50
2011,05,01,05,43,3.50
2011,05,01,05,44,3.50
2011,05,01,05,45,3.50
2011,05,01,05,46,3.50
2011,05,01,05,47,3.40
2011,05,01,05,48,3.40
2011,05,01,05,49,3.40
2011,05,01,05,50,3.40
2011,05,01,05,51,3.40
2011,05,01,05,52,3.40
2011,05,01,05,53,3.40
2011,05,01,05,54,3.30
2011,05,01,05,55,3.30
2011,05,01,05,56,3.30
2011,05,01,05,57,3.30
2011,05,01,05,58,3.30
2011,05,01,05,59,3.30
2011,05,01,06,00,3.30
2011,05,01,06,01,3.30
2011,05,01,06,02,3.30
2011,05,01,06,03,3.30
2011,05,01,06,04,3.30
2011,05,01,06,05,3.30
2011,05,01,06,06,3.30
2011,05,01,06,07,3.30
2011,05,01,06,08,3.30
2011,05,01,06,09,3.30
2011,05,01,06,10,3.30
2011,05,01,06,11,3.30
2011,05,01,06,12,3.30
2011,05,01,06,13,3.30
2011,05,01,06,14,3.30
2011,05,01,06,15,3.30
2011,05,01,06,16,3.30
2011,05,01,06,17,3.30
2011,05,01,06,18,3.30
2011,05,01,06,19,3.30
2011,05,01,06,20,3.30
2011,05,01,06,21,3.30
2011,05,01,06,22,3.30
2011,05,01,06,23,3.30
2011,05,01,06,24,3.30
2011,05,01,06,25,3.30
2011,05,01,06,26,3.30
2011,05,01,06,27,3.30
2011,05,01,06,28,3.30
2011,05,01,06,29,3.30
2011,05,01,06,30,3.30
2011,05,01,06,31,3.30
2011,05,01,06,32,3.40
2011,05,01,06,33,3.40
2011,05,01,06,34,3.40
2011,05,01,06,35,3.40
2011,05,01,06,36,3.50
2011,05,01,06,37,3.50
2011,05,01,06,38,3.50
2011,05,01,06,39,3.60
2011,05,01,06,40,3.60
2011,05,01,06,41,3.60
2011,05,01,06,42,3.60
2011,05,01,06,43,3.70
2011,05,01,06,44,3.70
2011,05,01,06,45,3.60
2011,05,01,06,46,3.60
2011,05,01,06,47,3.70
2011,05,01,06,48,3.70
2011,05,01,06,49,3.70
2011,05,01,06,50,3.70
2011,05,01,06,51,3.80
2011,05,01,06,52,3.80
2011,05,01,06,53,3.90
2011,05,01,06,54,3.90
2011,05,01,06,55,4.00
2011,05,01,06,56,4.10
2011,05,01,06,57,4.10
2011,05,01,06,58,4.20
2011,05,01,06,59,4.20
2011,05,01,07,00,4.30
2011,05,01,07,01,4.30
2011,05,01,07,02,4.30
2011,05,01,07,03,4.30
2011,05,01,07,04,4.40
2011,05,01,07,05,4.40
2011,05,01,07,06,4.50
2011,05,01,07,07,4.50
2011,05,01,07,08,4.60
2011,05,01,07,09,4.60
2011,05,01,07,10,4.70
2011,05,01,07,11,4.70
2011,05,01,07,12,4.70
2011,05,01,07,13,4.80
2011,05,01,07,14,4.80
2011,05,01,07,15,4.90
2011,05,01,07,16,5.00
2011,05,01,07,17,5.00
2011,05,01,07,18,5.10
2011,05,01,07,19,5.20
2011,05,01,07,20,5.30
2011,05,01,07,21,5.40
2011,05,01,07,22,5.40
2011,05,01,07,23,5.50
2011,05,01,07,24,5.50
2011,05,01,07,25,5.60
2011,05,01,07,26,5.70
2011,05,01,07,27,5.70
2011,05,01,07,28,5.80
2011,05,01,07,29,5.80
2011,05,01,07,30,5.90
2011,05,01,07,31,5.90
2011,05,01,07,32,6.00
2011,05,01,07,33,6.10
2011,05,01,07,34,6.10
2011,05,01,07,35,6.20
2011,05,01,07,36,6.20
2011,05,01,07,37,6.20
2011,05,01,07,38,6.30
2011,05,01,07,39,6.30
2011,05,01,07,40,6.30
2011,05,01,07,41,6.40
2011,05,01,07,42,6.40
2011,05,01,07,43,6.50
2011,05,01,07,44,6.50
2011,05,01,07,45,6.60
2011,05,01,07,46,6.60
2011,05,01,07,47,6.60
2011,05,01,07,48,6.70
2011,05,01,07,49,6.70
2011,05,01,07,50,6.70
2011,05,01,07,51,6.80
2011,05,01,07,52,6.80
2011,05,01,07,53,6.80
2011,05,01,07,54,6.90
2011,05,01,07,55,6.90
2011,05,01,07,56,6.90
2011,05,01,07,57,7.00
2011,05,01,07,58,7.00
2011,05,01,07,59,7.10
2011,05,01,08,00,7.20
2011,05,01,08,01,7.20
2011,05,01,08,02,7.20
2011,05,01,08,03,7.20
2011,05,01,08,04,7.30
2011,05,01,08,05,7.30
2011,05,01,08,06,7.30
2011,05,01,08,07,7.40
2011,05,01,08,08,7.40
2011,05,01,08,09,7.40
2011,05,01,08,10,7.40
2011,05,01,08,11,7.40
2011,05,01,08,12,7.50
2011,05,01,08,13,7.50
2011,05,01,08,14,7.60
2011,05,01,08,15,7.60
2011,05,01,08,16,7.70
2011,05,01,08,17,7.70
2011,05,01,08,18,7.70
2011,05,01,08,19,7.80
2011,05,01,08,20,7.80
2011,05,01,08,21,7.80
2011,05,01,08,22,7.90
2011,05,01,08,23,7.90
2011,05,01,08,24,7.90
2011,05,01,08,25,7.90
2011,05,01,08,26,7.90
2011,05,01,08,27,7.90
2011,05,01,08,28,7.90
2011,05,01,08,29,7.90
2011,05,01,08,30,7.90
2011,05,01,08,31,8.00
2011,05,01,08,32,8.00
2011,05,01,08,33,8.00
2011,05,01,08,34,8.00
2011,05,01,08,35,8.10
2011,05,01,08,36,8.10
2011,05,01,08,37,8.20
2011,05,01,08,38,8.20
2011,05,01,08,39,8.20
2011,05,01,08,40,8.20
2011,05,01,08,41,8.30
2011,05,01,08,42,8.30
2011,05,01,08,43,8.30
2011,05,01,08,44,8.30
2011,05,01,08,45,8.40
2011,05,01,08,46,8.40
2011,05,01,08,47,8.50
2011,05,01,08,48,8.50
2011,05,01,08,49,8.50
2011,05,01,08,50,8.50
2011,05,01,08,51,8.50
2011,05,01,08,52,8.50
2011,05,01,08,53,8.50
2011,05,01,08,54,8.50
2011,05,01,08,55,8.50
2011,05,01,08,56,8.50
2011,05,01,08,57,8.50
2011,05,01,08,58,8.60
2011,05,01,08,59,8.60
2011,05,01,09,00,8.70
2011,05,01,09,01,8.70
2011,05,01,09,02,8.70
2011,05,01,09,03,8.70
2011,05,01,09,04,8.70
2011,05,01,09,05,8.80
2011,05,01,09,06,8.80
2011,05,01,09,07,8.80
2011,05,01,09,08,8.80
2011,05,01,09,09,8.70
2011,05,01,09,10,8.70
2011,05,01,09,11,8.70
2011,05,01,09,12,8.70
2011,05,01,09,13,8.80
2011,05,01,09,14,8.80
2011,05,01,09,15,8.70
2011,05,01,09,16,8.70
2011,05,01,09,17,8.70
2011,05,01,09,18,8.70
2011,05,01,09,19,8.60
2011,05,01,09,20,8.70
2011,05,01,09,21,8.70
2011,05,01,09,22,8.70
2011,05,01,09,23,8.70
2011,05,01,09,24,8.70
2011,05,01,09,25,8.70
2011,05,01,09,26,8.70
2011,05,01,09,27,8.70
2011,05,01,09,28,8.70
2011,05,01,09,29,8.70
2011,05,01,09,30,8.70
2011,05,01,09,31,8.60
2011,05,01,09,32,8.70
2011,05,01,09,33,8.70
2011,05,01,09,34,8.70
2011,05,01,09,35,8.70
2011,05,01,09,36,8.70
2011,05,01,09,37,8.70
2011,05,01,09,38,8.70
2011,05,01,09,39,8.70
2011,05,01,09,40,8.80
2011,05,01,09,41,8.90
2011,05,01,09,42,9.00
2011,05,01,09,43,9.10
2011,05,01,09,44,9.20
2011,05,01,09,45,9.30
2011,05,01,09,46,9.40
2011,05,01,09,47,9.40
2011,05,01,09,48,9.40
2011,05,01,09,49,9.40
2011,05,01,09,50,9.40
2011,05,01,09,51,9.40
2011,05,01,09,52,9.40
2011,05,01,09,53,9.40
2011,05,01,09,54,9.40
2011,05,01,09,55,9.50
2011,05,01,09,56,9.50
2011,05,01,09,57,9.50
2011,05,01,09,58,9.50
2011,05,01,09,59,9.60
2011,05,01,10,00,9.60
2011,05,01,10,01,9.70
2011,05,01,10,02,9.70
2011,05,01,10,03,9.70
2011,05,01,10,04,9.70
2011,05,01,10,05,9.70
2011,05,01,10,06,9.70
2011,05,01,10,07,9.60
2011,05,01,10,08,9.60
2011,05,01,10,09,9.60
2011,05,01,10,10,9.60
2011,05,01,10,11,9.60
2011,05,01,10,12,9.70
2011,05,01,10,13,9.80
2011,05,01,10,14,9.80
2011,05,01,10,15,9.90
2011,05,01,10,16,9.90
2011,05,01,10,17,9.90
2011,05,01,10,18,9.90
2011,05,01,10,19,9.80
2011,05,01,10,20,9.70
2011,05,01,10,21,9.60
2011,05,01,10,22,9.60
2011,05,01,10,23,9.70
2011,05,01,10,24,9.60
2011,05,01,10,25,9.60
2011,05,01,10,26,9.70
2011,05,01,10,27,9.70
2011,05,01,10,28,9.80
2011,05,01,10,29,9.80
2011,05,01,10,30,9.90
2011,05,01,10,31,9.90
2011,05,01,10,32,9.90
2011,05,01,10,33,9.80
2011,05,01,10,34,9.80
2011,05,01,10,35,9.80
2011,05,01,10,36,9.80
2011,05,01,10,37,9.80
2011,05,01,10,38,9.80
2011,05,01,10,39,9.80
2011,05,01,10,40,9.80
2011,05,01,10,41,9.90
2011,05,01,10,42,10.00
2011,05,01,10,43,10.00
2011,05,01,10,44,9.90
2011,05,01,10,45,9.90
2011,05,01,10,46,9.90
2011,05,01,10,47,9.80
2011,05,01,10,48,9.70
2011,05,01,10,49,9.70
2011,05,01,10,50,9.70
2011,05,01,10,51,9.70
2011,05,01,10,52,9.60
2011,05,01,10,53,9.60
2011,05,01,10,54,9.60
2011,05,01,10,55,9.60
2011,05,01,10,56,9.60
2011,05,01,10,57,9.60
2011,05,01,10,58,9.70
2011,05,01,10,59,9.80
2011,05,01,11,00,9.90
2011,05,01,11,01,9.90
2011,05,01,11,02,10.00
2011,05,01,11,03,10.10
2011,05,01,11,04,10.20
2011,05,01,11,05,10.40
2011,05,01,11,06,10.40
2011,05,01,11,07,10.30
2011,05,01,11,08,10.40
2011,05,01,11,09,10.40
2011,05,01,11,10,10.40
2011,05,01,11,11,10.40
2011,05,01,11,12,10.40
2011,05,01,11,13,10.50
2011,05,01,11,14,10.60
2011,05,01,11,15,10.70
2011,05,01,11,16,10.70
2011,05,01,11,17,10.70
2011,05,01,11,18,10.70
2011,05,01,11,19,10.70
2011,05,01,11,20,10.70
2011,05,01,11,21,10.70
2011,05,01,11,22,10.70
2011,05,01,11,23,10.80
2011,05,01,11,24,10.80
2011,05,01,11,25,10.80
2011,05,01,11,26,10.80
2011,05,01,11,27,10.80
2011,05,01,11,28,10.80
2011,05,01,11,29,10.70
2011,05,01,11,30,10.70
2011,05,01,11,31,10.60
2011,05,01,11,32,10.50
2011,05,01,11,33,10.40
2011,05,01,11,34,10.30
2011,05,01,11,35,10.30
2011,05,01,11,36,10.30
2011,05,01,11,37,10.40
2011,05,01,11,38,10.40
2011,05,01,11,39,10.40
2011,05,01,11,40,10.40
2011,05,01,11,41,10.40
2011,05,01,11,42,10.40
2011,05,01,11,43,10.40
2011,05,01,11,44,10.50
2011,05,01,11,45,10.60
2011,05,01,11,46,10.70
2011,05,01,11,47,10.80
2011,05,01,11,48,10.80
2011,05,01,11,49,10.90
2011,05,01,11,50,11.00
2011,05,01,11,51,11.10
2011,05,01,11,52,11.20
2011,05,01,11,53,11.30
2011,05,01,11,54,11.30
2011,05,01,11,55,11.40
2011,05,01,11,56,11.40
2011,05,01,11,57,11.50
2011,05,01,11,58,11.50
2011,05,01,11,59,11.50
2011,05,01,12,00,11.60
2011,05,01,12,01,11.60
2011,05,01,12,02,11.60
2011,05,01,12,03,11.50
2011,05,01,12,04,11.40
2011,05,01,12,05,11.40
2011,05,01,12,06,11.40
2011,05,01,12,07,11.50
2011,05,01,12,08,11.60
2011,05,01,12,09,11.70
2011,05,01,12,10,11.70
2011,05,01,12,11,11.80
2011,05,01,12,12,11.90
2011,05,01,12,13,11.80
2011,05,01,12,14,11.80
2011,05,01,12,15,11.70
2011,05,01,12,16,11.70
2011,05,01,12,17,11.70
2011,05,01,12,18,11.70
2011,05,01,12,19,11.70
2011,05,01,12,20,11.70
2011,05,01,12,21,11.70
2011,05,01,12,22,11.70
2011,05,01,12,23,11.70
2011,05,01,12,24,11.70
2011,05,01,12,25,11.60
2011,05,01,12,26,11.60
2011,05,01,12,27,11.60
2011,05,01,12,28,11.60
2011,05,01,12,29,11.60
2011,05,01,12,30,11.60
2011,05,01,12,31,11.60
2011,05,01,12,32,11.50
2011,05,01,12,33,11.50
2011,05,01,12,34,11.40
2011,05,01,12,35,11.50
2011,05,01,12,36,11.60
2011,05,01,12,37,11.70
2011,05,01,12,38,11.80
2011,05,01,12,39,11.90
2011,05,01,12,40,11.90
2011,05,01,12,41,12.00
2011,05,01,12,42,12.00
2011,05,01,12,43,12.00
2011,05,01,12,44,12.00
2011,05,01,12,45,12.00
2011,05,01,12,46,12.00
2011,05,01,12,47,12.00
2011,05,01,12,48,12.00
2011,05,01,12,49,12.10
2011,05,01,12,50,12.10
2011,05,01,12,51,12.00
2011,05,01,12,52,12.00
2011,05,01,12,53,12.00
2011,05,01,12,54,12.00
2011,05,01,12,55,12.10
2011,05,01,12,56,12.10
2011,05,01,12,57,12.10
2011,05,01,12,58,12.20
2011,05,01,12,59,12.30
2011,05,01,13,00,12.40
2011,05,01,13,01,12.50
2011,05,01,13,02,12.60
2011,05,01,13,03,12.70
2011,05,01,13,04,12.70
2011,05,01,13,05,12.60
2011,05,01,13,06,12.50
2011,05,01,13,07,12.50
2011,05,01,13,08,12.40
2011,05,01,13,09,12.40
2011,05,01,13,10,12.30
2011,05,01,13,11,12.20
2011,05,01,13,12,12.20
2011,05,01,13,13,12.30
2011,05,01,13,14,12.30
2011,05,01,13,15,12.30
2011,05,01,13,16,12.30
2011,05,01,13,17,12.30
2011,05,01,13,18,12.30
2011,05,01,13,19,12.40
2011,05,01,13,20,12.30
2011,05,01,13,21,12.20
2011,05,01,13,22,12.20
2011,05,01,13,23,12.30
2011,05,01,13,24,12.20
2011,05,01,13,25,12.10
2011,05,01,13,26,12.10
2011,05,01,13,27,12.10
2011,05,01,13,28,12.00
2011,05,01,13,29,12.00
2011,05,01,13,30,12.00
2011,05,01,13,31,12.00
2011,05,01,13,32,12.00
2011,05,01,13,33,12.00
2011,05,01,13,34,12.10
2011,05,01,13,35,12.10
2011,05,01,13,36,12.20
2011,05,01,13,37,12.30
2011,05,01,13,38,12.30
2011,05,01,13,39,12.30
2011,05,01,13,40,12.30
2011,05,01,13,41,12.30
2011,05,01,13,42,12.30
2011,05,01,13,43,12.30
2011,05,01,13,44,12.40
2011,05,01,13,45,12.60
2011,05,01,13,46,12.60
2011,05,01,13,47,12.70
2011,05,01,13,48,12.70
2011,05,01,13,49,12.70
2011,05,01,13,50,12.70
2011,05,01,13,51,12.70
2011,05,01,13,52,12.70
2011,05,01,13,53,12.80
2011,05,01,13,54,12.80
2011,05,01,13,55,12.80
2011,05,01,13,56,12.80
2011,05,01,13,57,12.80
2011,05,01,13,58,12.90
2011,05,01,13,59,13.10
2011,05,01,14,00,13.20
2011,05,01,14,01,13.20
2011,05,01,14,02,13.20
2011,05,01,14,03,13.30
2011,05,01,14,04,13.40
2011,05,01,14,05,13.40
2011,05,01,14,06,13.40
2011,05,01,14,07,13.50
2011,05,01,14,08,13.40
2011,05,01,14,09,13.30
2011,05,01,14,10,13.30
2011,05,01,14,11,13.30
2011,05,01,14,12,13.30
2011,05,01,14,13,13.20
2011,05,01,14,14,13.20
2011,05,01,14,15,13.20
2011,05,01,14,16,13.20
2011,05,01,14,17,13.40
2011,05,01,14,18,13.40
2011,05,01,14,19,13.40
2011,05,01,14,20,13.30
2011,05,01,14,21,13.30
2011,05,01,14,22,13.20
2011,05,01,14,23,13.20
2011,05,01,14,24,13.20
2011,05,01,14,25,13.20
2011,05,01,14,26,13.10
2011,05,01,14,27,13.00
2011,05,01,14,28,12.90
2011,05,01,14,29,12.90
2011,05,01,14,30,12.80
2011,05,01,14,31,12.90
2011,05,01,14,32,12.90
2011,05,01,14,33,13.00
2011,05,01,14,34,13.00
2011,05,01,14,35,13.10
2011,05,01,14,36,13.10
2011,05,01,14,37,13.20
2011,05,01,14,38,13.20
2011,05,01,14,39,13.30
2011,05,01,14,40,13.30
2011,05,01,14,41,13.30
2011,05,01,14,42,13.20
2011,05,01,14,43,13.20
2011,05,01,14,44,13.20
2011,05,01,14,45,13.30
2011,05,01,14,46,13.30
2011,05,01,14,47,13.40
2011,05,01,14,48,13.50
2011,05,01,14,49,13.50
2011,05,01,14,50,13.50
2011,05,01,14,51,13.50
2011,05,01,14,52,13.50
2011,05,01,14,53,13.60
2011,05,01,14,54,13.60
2011,05,01,14,55,13.60
2011,05,01,14,56,13.60
2011,05,01,14,57,13.60
2011,05,01,14,58,13.70
2011,05,01,14,59,13.70
2011,05,01,15,00,13.70
2011,05,01,15,01,13.70
2011,05,01,15,02,13.70
2011,05,01,15,03,13.70
2011,05,01,15,04,13.70
2011,05,01,15,05,13.80
2011,05,01,15,06,13.80
2011,05,01,15,07,13.90
2011,05,01,15,08,13.90
2011,05,01,15,09,13.90
2011,05,01,15,10,13.80
2011,05,01,15,11,13.80
2011,05,01,15,12,13.70
2011,05,01,15,13,13.70
2011,05,01,15,14,13.70
2011,05,01,15,15,13.70
2011,05,01,15,16,13.80
2011,05,01,15,17,13.80
2011,05,01,15,18,13.90
2011,05,01,15,19,13.90
2011,05,01,15,20,13.90
2011,05,01,15,21,13.90
2011,05,01,15,22,13.90
2011,05,01,15,23,14.00
2011,05,01,15,24,14.00
2011,05,01,15,25,14.00
2011,05,01,15,26,13.90
2011,05,01,15,27,13.90
2011,05,01,15,28,13.90
2011,05,01,15,29,13.90
2011,05,01,15,30,13.80
2011,05,01,15,31,13.80
2011,05,01,15,32,13.70
2011,05,01,15,33,13.80
2011,05,01,15,34,13.90
2011,05,01,15,35,14.00
2011,05,01,15,36,14.00
2011,05,01,15,37,14.10
2011,05,01,15,38,14.20
2011,05,01,15,39,14.20
2011,05,01,15,40,14.20
2011,05,01,15,41,14.10
2011,05,01,15,42,14.10
2011,05,01,15,43,14.20
2011,05,01,15,44,14.20
2011,05,01,15,45,14.20
2011,05,01,15,46,14.30
2011,05,01,15,47,14.40
2011,05,01,15,48,14.40
2011,05,01,15,49,14.30
2011,05,01,15,50,14.30
2011,05,01,15,51,14.30
2011,05,01,15,52,14.20
2011,05,01,15,53,14.10
2011,05,01,15,54,14.00
2011,05,01,15,55,13.90
2011,05,01,15,56,13.90
2011,05,01,15,57,13.90
2011,05,01,15,58,13.90
2011,05,01,15,59,13.90
2011,05,01,16,00,13.90
2011,05,01,16,01,13.90
2011,05,01,16,02,13.80
2011,05,01,16,03,13.80
2011,05,01,16,04,13.90
2011,05,01,16,05,13.90
2011,05,01,16,06,13.90
2011,05,01,16,07,13.90
2011,05,01,16,08,13.90
2011,05,01,16,09,13.90
2011,05,01,16,10,13.90
2011,05,01,16,11,13.90
2011,05,01,16,12,13.90
2011,05,01,16,13,13.90
2011,05,01,16,14,13.80
2011,05,01,16,15,13.80
2011,05,01,16,16,13.80
2011,05,01,16,17,13.80
2011,05,01,16,18,13.80
2011,05,01,16,19,13.70
2011,05,01,16,20,13.70
2011,05,01,16,21,13.70
2011,05,01,16,22,13.70
2011,05,01,16,23,13.80
2011,05,01,16,24,14.00
2011,05,01,16,25,14.00
2011,05,01,16,26,14.10
2011,05,01,16,27,14.10
2011,05,01,16,28,14.20
2011,05,01,16,29,14.20
2011,05,01,16,30,14.20
2011,05,01,16,31,14.20
2011,05,01,16,32,14.20
2011,05,01,16,33,14.20
2011,05,01,16,34,14.10
2011,05,01,16,35,14.10
2011,05,01,16,36,14.10
2011,05,01,16,37,14.10
2011,05,01,16,38,14.10
2011,05,01,16,39,14.10
2011,05,01,16,40,14.00
2011,05,01,16,41,14.00
2011,05,01,16,42,13.90
2011,05,01,16,43,14.00
2011,05,01,16,44,14.00
2011,05,01,16,45,14.10
2011,05,01,16,46,14.20
2011,05,01,16,47,14.20
2011,05,01,16,48,14.10
2011,05,01,16,49,14.10
2011,05,01,16,50,14.10
2011,05,01,16,51,14.10
2011,05,01,16,52,14.10
2011,05,01,16,53,14.20
2011,05,01,16,54,14.30
2011,05,01,16,55,14.30
2011,05,01,16,56,14.30
2011,05,01,16,57,14.30
2011,05,01,16,58,14.20
2011,05,01,16,59,14.20
2011,05,01,17,00,14.20
2011,05,01,17,01,14.20
2011,05,01,17,02,14.20
2011,05,01,17,03,14.20
2011,05,01,17,04,14.10
2011,05,01,17,05,14.10
2011,05,01,17,06,14.20
2011,05,01,17,07,14.20
2011,05,01,17,08,14.20
2011,05,01,17,09,14.20
2011,05,01,17,10,14.20
2011,05,01,17,11,14.20
2011,05,01,17,12,14.20
2011,05,01,17,13,14.20
2011,05,01,17,14,14.20
2011,05,01,17,15,14.20
2011,05,01,17,16,14.20
2011,05,01,17,17,14.20
2011,05,01,17,18,14.20
2011,05,01,17,19,14.20
2011,05,01,17,20,14.30
2011,05,01,17,21,14.30
2011,05,01,17,22,14.40
2011,05,01,17,23,14.40
2011,05,01,17,24,14.40
2011,05,01,17,25,14.40
2011,05,01,17,26,14.40
2011,05,01,17,27,14.40
2011,05,01,17,28,14.40
2011,05,01,17,29,14.30
2011,05,01,17,30,14.20
2011,05,01,17,31,14.20
2011,05,01,17,32,14.10
2011,05,01,17,33,14.10
2011,05,01,17,34,14.10
2011,05,01,17,35,14.10
2011,05,01,17,36,14.10
2011,05,01,17,37,14.20
2011,05,01,17,38,14.20
2011,05,01,17,39,14.10
2011,05,01,17,40,14.10
2011,05,01,17,41,14.10
2011,05,01,17,42,14.10
2011,05,01,17,43,14.00
2011,05,01,17,44,13.90
2011,05,01,17,45,13.90
2011,05,01,17,46,14.00
2011,05,01,17,47,14.00
2011,05,01,17,48,14.00